Date,TemperatureHighF,TemperatureAvgF,TemperatureLowF,DewpointHighF,DewpointAvgF,DewpointLowF,HumidityHigh,HumidityAvg,HumidityLow,PressureMaxIn,PressureMinIn,WindSpeedMaxMPH,WindSpeedAvgMPH,GustSpeedMaxMPH,PrecipitationSumIn
2013-2-1,16.6,11.2,4.5,12.9,6.3,1.5,88,80,67,30.35,30.09,4,1,13,0.01
2013-2-2,26.4,21.2,16.3,23.9,19.0,13.2,92,91,87,30.20,29.97,4,1,12,0.00
2013-2-3,24.8,18.3,10.1,19.5,14.0,6.8,91,83,73,30.05,29.93,5,0,10,0.01
2013-2-4,29.2,24.7,21.2,24.7,22.0,18.6,93,89,83,30.04,29.83,2,0,6,0.00
2013-2-5,32.2,27.1,18.7,30.3,24.7,16.8,94,91,82,30.03,29.78,7,1,18,0.00
2013-2-6,35.3,34.1,33.5,28.6,27.8,27.1,81,77,72,30.19,30.12,9,2,14,0.10
2013-2-7,43.5,35.2,30.6,35.2,32.0,27.5,95,88,71,30.12,29.80,7,1,15,0.38
2013-2-8,35.2,33.5,31.5,34.4,30.1,25.8,97,87,79,30.33,29.83,6,2,22,0.00
2013-2-9,37.7,29.9,26.3,30.2,24.7,22.4,85,81,73,30.38,30.19,7,2,17,0.01
2013-2-10,51.1,40.9,33.5,48.9,37.2,26.4,97,86,74,30.10,29.51,10,6,27,0.21
2013-2-11,51.3,36.7,31.4,48.2,30.5,26.0,89,78,73,29.98,29.51,7,2,31,0.00
2013-2-12,33.8,29.3,21.9,27.1,24.5,19.4,90,82,74,30.08,29.93,2,0,11,0.00
2013-2-13,48.6,35.9,20.7,36.6,29.4,18.8,93,79,61,29.92,29.69,11,2,16,0.01
2013-2-14,44.4,37.7,33.0,37.3,32.2,24.4,92,81,70,29.93,29.64,6,2,17,0.00
2013-2-15,33.5,29.4,24.3,28.6,22.7,17.2,89,76,64,30.15,29.93,4,0,15,0.00
2013-2-16,26.4,21.1,18.0,18.6,14.1,10.2,83,74,64,30.14,30.08,2,0,10,0.00
2013-2-17,25.5,20.1,14.0,18.1,14.3,9.8,83,78,72,30.19,30.13,1,0,5,0.21
2013-2-18,55.3,41.4,27.1,47.2,34.0,16.6,96,75,64,30.05,29.40,14,8,33,0.33
2013-2-19,37.2,22.1,18.6,35.6,18.7,14.6,95,86,83,29.77,29.48,5,1,16,0.02
2013-2-20,25.6,20.0,16.0,20.9,15.4,11.0,88,82,75,30.33,30.12,1,0,19,0.01
2013-2-21,28.4,26.1,24.8,23.9,21.6,20.7,84,83,79,30.35,30.30,2,0,11,0.00
2013-2-26,36.6,34.4,33.5,33.2,30.5,26.5,97,86,68,29.95,29.44,6,2,26,0.32
2013-2-27,36.6,34.3,33.4,36.1,33.7,32.6,98,98,97,29.60,29.44,0,0,4,0.42
2013-2-28,37.4,34.8,31.8,35.0,33.2,29.2,98,94,88,29.98,29.61,4,2,24,0.15